This is the latest recevied weather packets stored in our database for station/object KB1JL-13. If no packets are shown the sender has not sent any weather packets the latest 10 day(s).
| Time | Temp. | Humidity | Pressure | Rain* | Wind** | Luminosity | Snow |
|---|---|---|---|---|---|---|---|
| 1778178990 | 16.67° C | 38% | 1019.5 hPa | 0 mm | - | 582 W/m² | - |
| 1778178687 | 16.11° C | 43% | 1019.9 hPa | 0 mm | - | 603 W/m² | - |
| 1778178384 | 16.67° C | 42% | 1019.5 hPa | 0 mm | - | 597 W/m² | - |
| 1778178080 | 16.67° C | 40% | 1019.9 hPa | 0 mm | - | 627 W/m² | - |
| 1778177777 | 16.67° C | 40% | 1019.9 hPa | 0 mm | - | 632 W/m² | - |
| 1778177473 | 16.67° C | 43% | 1019.9 hPa | 0 mm | - | 593 W/m² | - |
| 1778177170 | 16.11° C | 43% | 1019.9 hPa | 0 mm | - | 606 W/m² | - |
| 1778176867 | 16.11° C | 43% | 1019.9 hPa | 0 mm | - | 652 W/m² | - |
| 1778176563 | 16.11° C | 44% | 1019.9 hPa | 0 mm | - | 632 W/m² | - |
| 1778176260 | 16.67° C | 40% | 1019.9 hPa | 0 mm | - | 642 W/m² | - |
| 1778175957 | 16.67° C | 47% | 1019.9 hPa | 0 mm | - | 665 W/m² | - |
| 1778175655 | 16.67° C | 39% | 1019.9 hPa | 0 mm | - | 661 W/m² | - |
| 1778175352 | 16.11° C | 39% | 1020.2 hPa | 0 mm | - | 674 W/m² | - |
| 1778175049 | 15.56° C | 41% | 1020.2 hPa | 0 mm | - | 673 W/m² | - |
| 1778174745 | 16.11° C | 39% | 1020.2 hPa | 0 mm | - | 669 W/m² | - |
| 1778174442 | 15.56° C | 46% | 1020.5 hPa | 0 mm | - | 658 W/m² | - |
| 1778174137 | 16.11° C | 45% | 1020.5 hPa | 0 mm | - | 662 W/m² | - |
| 1778173835 | 16.11° C | 40% | 1020.5 hPa | 0 mm | - | 652 W/m² | - |
| 1778173531 | 16.11° C | 46% | 1020.5 hPa | 0 mm | - | 642 W/m² | - |
| 1778173228 | 15.56° C | 40% | 1020.5 hPa | 0 mm | - | 644 W/m² | - |
| 1778172924 | 16.11° C | 42% | 1020.5 hPa | 0 mm | - | 642 W/m² | - |
| 1778172621 | 16.11° C | 42% | 1020.5 hPa | 0 mm | - | 655 W/m² | - |
| 1778172317 | 15.56° C | 44% | 1020.9 hPa | 0 mm | - | 662 W/m² | - |
| 1778172014 | 15° C | 44% | 1020.9 hPa | 0 mm | - | 671 W/m² | - |
| 1778171711 | 15° C | 41% | 1020.5 hPa | 0 mm | - | 682 W/m² | - |
* Rain latest hour (hover to see other rain measurements)
** Current wind speed in m/s (hover to see current wind gust speed)